Sharm El Sheikh, Egypt

8:36 AM EET on February 11, 2016 (GMT +0200)
Sharm El Sheikh

Weather History for 62460 - November, 2013

Change the Weather History Date:

Friday, November 8, 2013

  Actual Average Record
Temperature  
Mean Temperature 80 °F -  
Max Temperature 93 °F 79 °F - ()
Min Temperature 66 °F 63 °F - ()
Cooling Degree Days 14    
Growing Degree Days 30 (Base 50)    
Moisture  
Dew Point 56 °F    
Average Humidity 49    
Maximum Humidity 74    
Minimum Humidity 16    
Precipitation  
Precipitation 0.00 in 0.00 in - ()
Sea Level Pressure  
Sea Level Pressure 29.78 in    
Wind  
Wind Speed 4 mph ()    
Max Wind Speed 9 mph    
Max Gust Speed -    
Visibility 6.2 miles    
Events      
T = Trace of Precipitation, MM = Missing Value Source: Averaged Metar Reports

Daily Weather History Graph

Daily Weather History Graph

Search for Another Location

Airport or City:

Trip Planner

Search our weather history database for the weather conditions in past years. The results will help you decide how hot, cold, wet, or windy it might be!

Date:

Astronomy

Nov. 08, 2013 Rise Set
Actual Time 5:58 AM EET 4:53 PM EET
Civil Twilight 5:34 AM EET 5:17 PM EET
Nautical Twilight 5:06 AM EET 5:45 PM EET
Astronomical Twilight 4:38 AM EET 6:13 PM EET
Moon 10:37 AM EET (11/8) 9:50 PM EET (11/8)
Length of Visible Light 11h 43m
Length of Day
10h 54m
Waxing Crescent, 30% of the Moon is Illuminated
Nov 8
Waxing Crescent
Nov 10
First Quarter
Nov 17
Full
Nov 25
Last Quarter
Dec 3
New

Hourly Weather History & Observations

Time (EET) Temp. Heat Index Dew Point Humidity Pressure Visibility Wind Dir Wind Speed Gust Speed Precip Events Conditions
1:00 AM 66.2 °F - 44.6 °F 46% 29.77 in - North 2.3 mph - N/A   Clear
3:00 AM 71.6 °F - 57.2 °F 60% 29.77 in - NNW 4.6 mph - N/A   Clear
4:00 AM 71.6 °F - 59.0 °F 64% 29.80 in - North 4.6 mph - N/A   Clear
5:00 AM 71.6 °F - 60.8 °F 69% 29.80 in - Variable 3.5 mph - N/A   Clear
6:00 AM 73.4 °F - 62.6 °F 69% 29.80 in 6.2 mi NW 5.8 mph - N/A   Mostly Cloudy
7:00 AM 73.4 °F - 62.6 °F 69% 29.80 in 6.2 mi Variable 3.5 mph - N/A   Mostly Cloudy
8:00 AM 77.0 °F - 68.0 °F 74% 29.83 in - Calm Calm - N/A   Clear
9:00 AM 82.4 °F 86.3 °F 69.8 °F 66% 29.83 in - NNE 5.8 mph - N/A   Clear
10:00 AM 86.0 °F 84.9 °F 57.2 °F 37% 29.83 in - NNE 8.1 mph - N/A   Clear
11:00 AM 89.6 °F 87.3 °F 53.6 °F 29% 29.80 in - NE 6.9 mph - N/A   Clear
12:00 PM 91.4 °F - 48.2 °F 23% 29.77 in - NE 5.8 mph - N/A   Clear
1:00 PM 91.4 °F - 44.6 °F 20% 29.74 in - ENE 6.9 mph - N/A   Clear
2:00 PM 93.2 °F - 41.0 °F 16% 29.74 in - ESE 4.6 mph - N/A   Clear
3:00 PM 87.8 °F - 46.4 °F 24% 29.74 in - South 9.2 mph - N/A   Clear
4:00 PM 84.2 °F 83.5 °F 57.2 °F 40% 29.74 in - SSE 9.2 mph - N/A   Clear
5:00 PM 82.4 °F - 50.0 °F 32% 29.71 in - South 6.9 mph - N/A   Clear
7:00 PM 75.2 °F - 57.2 °F 53% 29.74 in - North 3.5 mph - N/A   Clear
8:00 PM 73.4 °F - 57.2 °F 57% 29.74 in - Variable 3.5 mph - N/A   Clear
9:00 PM 71.6 °F - 57.2 °F 60% 29.77 in - Variable 2.3 mph - N/A   Clear
10:00 PM 71.6 °F - 55.4 °F 57% 29.77 in - Calm Calm - N/A   Clear
11:00 PM 73.4 °F - 59.0 °F 61% 29.80 in - North 6.9 mph - N/A   Clear